Ana Sayfa
METAR-TAF:

METAR-TAF

Havaalanları :

Terrell County Airport

Dryden, Teksas, Amerika Birleşik Devletleri

Enlem: 30-02-53N, Boylam: 102-12-47W, yükseklik: 707 m

Güncel hava durumu gözlemi

Rapor saat 07:53 UTC de 31 dakika önce yapıldı.
Rüzgar kuzey/kuzeydoğudan 6 kt
Sıcaklık 8°C
Nem 76%
Basınç 1017 hPa

METAR: K6R6 230753Z AUTO 02006KT 08/04 A3004 RMK AO1 SLP159 T00780039

Saat: 02:24 (08:24 UTC)


TAF: eksik

4.000'den fazla havaalanı için hava durumu gözlemleri ve tahminleri (METAR ve TAF raporları).

Kullanılabilir istasyonlar harita üzerinde sarı ve kırmızı noktalarla gösterilir.

İstasyonun adını görmek için fareyi noktanın üzerinde gezdirin.

Sonrasında hava gözlem ve tahminlerini görmek için tıklayın.

Haritayı değiştirmek için: yaklaştırmak için siyah artı işaretli yeşil düğmeye ve uzaklaştırmak için de eksi işaretli düğmeye hızla tıklayın; bitişik haritalar için yeşil okları kullanın.


METAR-TAF: